| time (UTC) | temp F | wind direction | speed MPH | gust MPH | rain 1hr in | rain 24hr in | rain mn in | humidity % | barometer mb |
| 20260903123004 | 73 | 267 | 4.0 | 10.0 | 0.01 | 0.84 | 0.82 | 90 | 1018.3 |
| 20260903121508 | 73 | 199 | 3.0 | 11.0 | 0.01 | 0.84 | 0.82 | 91 | 1017.7 |
| 20260903120006 | 73 | 225 | 4.0 | 10.0 | 0.01 | 0.84 | 0.82 | 92 | 1017.5 |
| 20260903114503 | 72 | 206 | 4.0 | 11.0 | 0.01 | 0.84 | 0.82 | 92 | 1017.7 |
| 20260903113008 | 72 | 200 | 3.0 | 8.0 | 0.00 | 0.83 | 0.81 | 93 | 1017.7 |
| 20260903111506 | 72 | 205 | 3.0 | 7.0 | 0.00 | 0.83 | 0.81 | 93 | 1017.7 |
| 20260903110007 | 71 | 223 | 1.0 | 4.0 | 0.02 | 0.83 | 0.81 | 93 | 1017.9 |
| 20260903104510 | 71 | 238 | 0.0 | 0.0 | 0.18 | 0.83 | 0.81 | 93 | 1017.9 |
| 20260903103008 | 71 | 238 | 0.0 | 0.0 | 0.21 | 0.83 | 0.81 | 93 | 1018.0 |
| 20260903101526 | 71 | 238 | 0.0 | 4.0 | 0.23 | 0.83 | 0.81 | 93 | 1018.4 |
| 20260903100011 | 72 | 275 | 2.0 | 9.0 | 0.21 | 0.81 | 0.79 | 93 | 1018.5 |
| 20260903094508 | 72 | 242 | 0.0 | 0.0 | 0.08 | 0.65 | 0.63 | 93 | 1018.4 |
| 20260903093012 | 73 | 5 | 0.0 | 0.0 | 0.06 | 0.62 | 0.60 | 93 | 1017.6 |
| 20260903091513 | 73 | 47 | 0.0 | 0.0 | 0.04 | 0.60 | 0.58 | 93 | 1017.4 |
| 20260903090014 | 73 | 226 | 0.0 | 0.0 | 0.04 | 0.60 | 0.58 | 93 | 1017.6 |
| 20260903084525 | 73 | 89 | 0.0 | 0.0 | 0.04 | 0.57 | 0.55 | 93 | 1017.6 |
| 20260903083021 | 73 | 86 | 0.0 | 0.0 | 0.17 | 0.56 | 0.54 | 93 | 1017.3 |
| 20260903081510 | 73 | 86 | 0.0 | 0.0 | 0.23 | 0.56 | 0.54 | 93 | 1017.6 |
| 20260903080029 | 73 | 79 | 0.0 | 4.0 | 0.54 | 0.56 | 0.54 | 93 | 1017.5 |
| 20260903074517 | 73 | 90 | 4.0 | 9.0 | 0.51 | 0.52 | 0.51 | 93 | 1017.5 |
| 20260903073032 | 73 | 360 | 7.0 | 16.0 | 0.37 | 0.39 | 0.37 | 92 | 1018.1 |
| 20260903071515 | 73 | 9 | 8.0 | 18.0 | 0.31 | 0.33 | 0.31 | 91 | 1018.5 |
| 20260903070019 | 75 | 319 | 10.0 | 18.0 | 0.00 | 0.02 | 0.00 | 91 | 1018.7 |
| 20260903064516 | 75 | 352 | 2.0 | 5.0 | 0.00 | 0.02 | 0.00 | 91 | 1017.4 |
| 20260903063019 | 75 | 86 | 3.0 | 7.0 | 0.00 | 0.02 | 0.00 | 91 | 1017.0 |
| 20260903061518 | 75 | 84 | 0.0 | 5.0 | 0.00 | 0.02 | 0.00 | 91 | 1017.4 |
| 20260903060020 | 75 | 94 | 0.0 | 3.0 | 0.00 | 0.02 | 0.00 | 91 | 1017.6 |
| 20260903054516 | 75 | 94 | 1.0 | 6.0 | 0.00 | 0.02 | 0.00 | 91 | 1017.5 |
| 20260903053003 | 75 | 88 | 2.0 | 6.0 | 0.00 | 0.02 | 0.00 | 91 | 1017.4 |
| 20260903051506 | 75 | 74 | 1.0 | 5.0 | 0.00 | 0.02 | 0.00 | 91 | 1017.7 |
| 20260903050021 | 75 | 67 | 1.0 | 5.0 | 0.00 | 0.02 | 0.00 | 91 | 1018.0 |
| 20260903044518 | 75 | 92 | 1.0 | 4.0 | 0.00 | 0.02 | 0.00 | 91 | 1018.2 |
| 20260903043010 | 75 | 87 | 0.0 | 3.0 | 0.00 | 0.02 | 0.00 | 91 | 1018.3 |
| 20260903041515 | 75 | 87 | 0.0 | 3.0 | 0.00 | 0.02 | 0.00 | 91 | 1018.2 |
| 20260903040009 | 75 | 86 | 0.0 | 3.0 | 0.00 | 0.02 | 0.00 | 90 | 1018.1 |
| 20260903034510 | 75 | 81 | 2.0 | 4.0 | 0.00 | 0.02 | 0.02 | 90 | 1018.4 |
| 20260903033013 | 75 | 60 | 2.0 | 6.0 | 0.00 | 0.02 | 0.02 | 90 | 1018.5 |
| 20260903031514 | 75 | 97 | 3.0 | 9.0 | 0.00 | 0.02 | 0.02 | 90 | 1018.3 |
| 20260903030018 | 75 | 92 | 3.0 | 9.0 | 0.00 | 0.02 | 0.02 | 90 | 1018.0 |
| 20260903024511 | 75 | 103 | 4.0 | 11.0 | 0.00 | 0.02 | 0.02 | 89 | 1017.9 |
| 20260903023014 | 75 | 74 | 5.0 | 11.0 | 0.00 | 0.02 | 0.02 | 89 | 1018.2 |
| 20260903021518 | 75 | 59 | 1.0 | 10.0 | 0.00 | 0.19 | 0.02 | 89 | 1018.4 |
| 20260903020020 | 75 | 92 | 4.0 | 8.0 | 0.00 | 0.63 | 0.02 | 88 | 1018.6 |
| 20260903014519 | 75 | 88 | 4.0 | 10.0 | 0.00 | 0.63 | 0.02 | 88 | 1018.4 |
| 20260903013008 | 75 | 98 | 1.0 | 8.0 | 0.00 | 0.63 | 0.02 | 88 | 1018.5 |
| 20260903011516 | 75 | 92 | 4.0 | 10.0 | 0.00 | 0.63 | 0.02 | 88 | 1018.8 |
| 20260903010020 | 75 | 94 | 4.0 | 9.0 | 0.00 | 0.63 | 0.02 | 87 | 1018.9 |
| 20260903004523 | 75 | 74 | 3.0 | 11.0 | 0.00 | 0.63 | 0.02 | 87 | 1018.9 |
| 20260903003023 | 75 | 94 | 7.0 | 14.0 | 0.00 | 0.63 | 0.02 | 87 | 1018.5 |
| 20260903001510 | 75 | 80 | 7.0 | 12.0 | 0.00 | 0.63 | 0.02 | 87 | 1018.2 |
| 20260903000022 | 75 | 126 | 6.0 | 12.0 | 0.00 | 0.63 | 0.02 | 87 | 1018.5 |
| 20260902234524 | 75 | 96 | 6.0 | 10.0 | 0.00 | 0.63 | 0.02 | 86 | 1018.3 |
| 20260902233023 | 75 | 76 | 3.0 | 10.0 | 0.00 | 0.63 | 0.02 | 86 | 1018.4 |
| 20260902231520 | 75 | 61 | 2.0 | 12.0 | 0.00 | 0.63 | 0.02 | 86 | 1018.3 |
| 20260902230014 | 75 | 56 | 5.0 | 9.0 | 0.00 | 0.63 | 0.02 | 86 | 1018.4 |
| 20260902224517 | 75 | 34 | 3.0 | 12.0 | 0.00 | 0.63 | 0.02 | 86 | 1018.6 |
| 20260902223023 | 75 | 86 | 5.0 | 11.0 | 0.00 | 0.63 | 0.02 | 85 | 1018.5 |
| 20260902221504 | 75 | 86 | 6.0 | 11.0 | 0.00 | 0.63 | 0.02 | 85 | 1018.7 |
| 20260902220010 | 75 | 68 | 7.0 | 12.0 | 0.00 | 0.63 | 0.02 | 85 | 1018.9 |
| 20260902214516 | 75 | 94 | 5.0 | 14.0 | 0.00 | 0.63 | 0.02 | 85 | 1019.0 |
| 20260902213022 | 75 | 92 | 7.0 | 13.0 | 0.00 | 0.63 | 0.02 | 84 | 1018.9 |
| 20260902211523 | 75 | 94 | 6.0 | 12.0 | 0.00 | 0.63 | 0.02 | 85 | 1019.1 |
| 20260902210008 | 75 | 91 | 8.0 | 13.0 | 0.00 | 0.63 | 0.02 | 85 | 1018.9 |
| 20260902204515 | 75 | 82 | 6.0 | 13.0 | 0.00 | 0.63 | 0.02 | 86 | 1018.9 |
| 20260902203020 | 75 | 92 | 10.0 | 18.0 | 0.01 | 0.63 | 0.02 | 85 | 1018.6 |
| 20260902201523 | 75 | 84 | 8.0 | 12.0 | 0.02 | 0.63 | 0.02 | 85 | 1018.9 |
| 20260902200030 | 75 | 98 | 6.0 | 13.0 | 0.02 | 0.63 | 0.02 | 85 | 1019.2 |
| 20260902194511 | 76 | 107 | 8.0 | 13.0 | 0.02 | 0.63 | 0.02 | 84 | 1019.2 |
| 20260902193016 | 77 | 111 | 3.0 | 10.0 | 0.01 | 0.62 | 0.01 | 83 | 1019.1 |
| 20260902191522 | 78 | 105 | 6.0 | 12.0 | 0.00 | 0.61 | 0.00 | 79 | 1019.2 |
| 20260902190042 | 79 | 94 | 6.0 | 11.0 | 0.00 | 0.61 | 0.00 | 75 | 1019.8 |
| 20260902184530 | 79 | 48 | 3.0 | 10.0 | 0.00 | 0.61 | 0.00 | 74 | 1020.5 |
| 20260902183013 | 81 | 55 | 5.0 | 11.0 | 0.00 | 0.61 | 0.00 | 71 | 1020.6 |
| 20260902181516 | 82 | 54 | 5.0 | 12.0 | 0.00 | 0.61 | 0.00 | 71 | 1020.8 |
| 20260902180033 | 83 | 82 | 6.0 | 13.0 | 0.00 | 0.61 | 0.00 | 69 | 1020.7 |
| 20260902174527 | 83 | 32 | 6.0 | 13.0 | 0.00 | 0.61 | 0.00 | 70 | 1020.6 |
| 20260902173037 | 82 | 94 | 9.0 | 16.0 | 0.00 | 0.61 | 0.00 | 71 | 1020.2 |
| 20260902171540 | 83 | 89 | 9.0 | 17.0 | 0.00 | 0.61 | 0.00 | 69 | 1020.2 |
| 20260902170021 | 83 | 61 | 6.0 | 14.0 | 0.00 | 0.61 | 0.00 | 71 | 1020.1 |
| 20260902164503 | 82 | 82 | 7.0 | 15.0 | 0.00 | 0.61 | 0.00 | 72 | 1020.1 |
| 20260902163008 | 82 | 69 | 10.0 | 16.0 | 0.00 | 0.61 | 0.00 | 73 | 1020.1 |
| 20260902161524 | 82 | 63 | 5.0 | 14.0 | 0.00 | 0.61 | 0.00 | 72 | 1020.1 |
| 20260902160015 | 82 | 80 | 7.0 | 15.0 | 0.00 | 0.61 | 0.00 | 73 | 1020.0 |
| 20260902154532 | 81 | 105 | 8.0 | 15.0 | 0.00 | 0.61 | 0.00 | 73 | 1020.0 |
| 20260902153004 | 81 | 80 | 10.0 | 16.0 | 0.00 | 0.61 | 0.00 | 72 | 1020.1 |
| 20260902151509 | 80 | 84 | 9.0 | 15.0 | 0.00 | 0.61 | 0.00 | 73 | 1020.2 |
| 20260902150012 | 80 | 67 | 10.0 | 16.0 | 0.00 | 0.61 | 0.00 | 74 | 1020.3 |
| 20260902144523 | 80 | 99 | 9.0 | 15.0 | 0.00 | 0.61 | 0.00 | 76 | 1020.2 |
| 20260902143030 | 79 | 76 | 11.0 | 17.0 | 0.00 | 0.61 | 0.00 | 78 | 1020.1 |
| 20260902141504 | 78 | 88 | 4.0 | 13.0 | 0.00 | 0.61 | 0.00 | 81 | 1020.1 |
| 20260902140009 | 77 | 47 | 8.0 | 14.0 | 0.00 | 0.61 | 0.00 | 82 | 1019.9 |
| 20260902134521 | 78 | 89 | 8.0 | 15.0 | 0.00 | 0.61 | 0.00 | 82 | 1019.6 |
| 20260902133028 | 77 | 69 | 7.0 | 17.0 | 0.00 | 0.61 | 0.00 | 82 | 1019.4 |
| 20260902131527 | 77 | 86 | 8.0 | 18.0 | 0.00 | 0.61 | 0.00 | 84 | 1019.2 |
| 20260902130010 | 76 | 95 | 8.0 | 16.0 | 0.00 | 0.61 | 0.00 | 85 | 1019.0 |
| 20260902124511 | 76 | 33 | 7.0 | 15.0 | 0.00 | 0.61 | 0.00 | 85 | 1019.4 |